Location: Dackenheim
(49.5215°N, 8.1854°E)
Time: 16:13:22
(UTC+00:00)

BlueWalker 3 - Visible Passes

Search period start: 20 January 2026 00:00
Search period end: 30 January 2026 00:00
Orbit: 451 x 463 km, 53.2° (Epoch: 20 January)

Date Brightness Start Highest point End Pass type
(mag) Time Alt. Az. Time Alt. Az. Time Alt. Az.
20 Jan 3.8 17:58:08 10° S 17:59:36 16° SSE 17:59:36 16° SSE visible
21 Jan 3.8 17:23:23 10° SSE 17:25:16 14° SE 17:25:59 13° ESE visible
21 Jan 4.2 18:58:40 10° SW 18:59:45 18° SW 18:59:45 18° SW visible
22 Jan 4.1 16:49:02 10° SSE 16:50:01 11° SE 16:50:58 10° ESE visible
22 Jan 2.6 18:23:21 10° SW 18:26:02 43° SSW 18:26:02 43° SSW visible
23 Jan 2.2 17:48:02 10° SW 17:51:27 44° SSE 17:52:14 37° ESE visible
23 Jan 4.9 19:25:24 10° W 19:25:59 14° W 19:25:59 14° W visible
24 Jan 2.6 17:12:46 10° SSW 17:16:04 36° SE 17:18:22 17° E visible
24 Jan 3.3 18:49:54 10° W 18:52:07 34° W 18:52:07 34° W visible
25 Jan 1.7 18:14:24 10° WSW 18:17:58 72° NNW 18:18:11 69° NNE visible
26 Jan 1.7 17:38:54 10° WSW 17:42:29 82° NNW 17:44:11 29° ENE visible
26 Jan 4.5 19:16:48 10° WNW 19:17:55 18° WNW 19:17:55 18° WNW visible
27 Jan 1.7 17:03:25 10° WSW 17:06:59 85° SSE 17:10:10 13° ENE visible
27 Jan 3.0 18:41:15 10° W 18:43:53 38° NW 18:43:53 38° NW visible
28 Jan 2.3 18:05:40 10° W 18:09:09 47° N 18:09:49 41° NNE visible
28 Jan 5.2 19:43:29 10° WNW 19:43:33 10° WNW 19:43:33 10° WNW visible
29 Jan 2.2 17:30:04 10° W 17:33:34 50° N 17:35:44 20° ENE visible
29 Jan 4.0 19:07:56 10° WNW 19:09:28 23° WNW 19:09:28 23° WNW visible
